Showing default

QIANFAN-53, 62254

Orbit data source: Space-Track

QIANFAN-53, 62254 is a Chinese payload satellite in LEO that was launched on Thu, 05 Dec 2024 UTC via a CHANG ZHENG 6A launch vehicle from the Taiyaun Space Center, China (TSC). Payload-class satellites include a variety of spacecraft equipped with specific instruments for various scientific and technological missions. These include communications satellites like Starlink; space stations such as the ISS; scientific satellites like the Hubble; Earth observation satellites from companies like Planet Labs, Umbra, and HawkEye 360; GPS; miniature CubeSats for education and research; and military/defense satellites.

Loading next visibility...
Identifier
62254, 2024-232T
Orbit
LEO
Country
Flag of CNCN / PRC
Related business
Manufacturer
SECM
Mission
Operational Commercial Communications
Bus & Motor
QIANFAN, Unknown motor
Mass
267 kg wet, ~267 kg dry
Launch date (UTC)
2024-12-05 (10 months ago)
Launch vehicle
CHANG ZHENG 6A
Launch site
Taiyaun Space Center, China (TSC)
Object type
Payload
Rocket body
Debris
Shape & HBR
Box + 1 Pan, 5.0 m
Radar Cross Section
13.200 m², Large (>1 m²)

Expand to show TLE details & history
Last TLE update: 10 hours ago

TLE from 10 hours ago
0 QIANFAN-53
1 62254U 24232T   25287.90142815  .00000145  00000-0  20597-3 0  9992
2 62254  89.0025  47.1375 0014046  10.9614 349.1840 13.50974421 59962
Epoch: 2025-10-14T21:38Z
TLE epoch observation values (Epoch: 2025-10-14T21:38:03.392Z)
Latitude
-0.00005°
Longitude
58.94016°
Altitude
1,061.353 km
Speed
7.326 km/s
True Right ascension
03h 08m 32s
True Declination
0° 00' 00"
Sunlit
Object was in full shadow at epoch
Visualization orbit readout
Latitude
Unknown
Longitude
Unknown
Altitude
Unknown
Speed
Unknown
Apparent Right ascension
Unknown
Apparent Declination
Unknown
Sunlit
N/A
Visualization observer readout
Local Sidereal Time
02:20:48
Azimuth
Unknown
Elevation
Unknown
Doppler factor
Unknown
Orbital elements
Apogee altitude
1,076.182 km
Perigee altitude
1,055.271 km
Semi-major axis
7,443.864 km
Eccentricity
0.0014
Inclination
89.0025°
RAAN
47.1375°
Arg. of periapsis
10.9614°
True anomaly
349.15374°
Mean anomaly
349.184°
Eccentric anomaly
349.16888°
Mean motion
3.37945 °/min
Orbital period
106.53 mins
BSTAR
0.00020597
Loading maneuver chart data...
Computing Atmospheric mass density...
Loading historical data...
Loading historical data...
Loading historical data...
Loading historical data...
Loading historical data...
Loading historical data...
Loading historical data...

Documentation

Showing up to 5 results
|